TimeCST,TemperatureF,Dew PointF,Humidity,Sea Level PressureIn,VisibilityMPH,Wind Direction,Wind SpeedMPH,Gust SpeedMPH,PrecipitationIn,Events,Conditions,WindDirDegrees,DateUTC
12:00 AM,24.8,24.8,100,29.76,5.0,WSW,19.6,26.5,N/A,Snow,Light Snow,240,2013-01-16 06:00:00
12:20 AM,24.8,24.8,100,29.76,10.0,SW,18.4,24.2,N/A,Snow,Light Snow,230,2013-01-16 06:20:00
12:40 AM,24.8,24.8,100,29.75,8.0,WSW,17.3,24.2,N/A,Snow,Light Snow,240,2013-01-16 06:40:00
1:00 AM,24.8,24.8,100,29.75,3.0,WSW,16.1,20.7,0.02,Snow,Light Snow,240,2013-01-16 07:00:00
1:20 AM,24.8,24.8,100,29.74,7.0,WSW,17.3,25.3,N/A,Snow,Light Snow,240,2013-01-16 07:20:00
1:40 AM,26.6,26.6,100,29.74,9.0,WSW,15.0,-,0.01,Snow,Light Snow,240,2013-01-16 07:40:00
2:00 AM,26.6,26.6,100,29.73,7.0,WSW,16.1,21.9,0.01,Snow,Light Snow,240,2013-01-16 08:00:00
2:20 AM,26.6,26.6,100,29.73,7.0,WSW,16.1,23.0,N/A,Snow,Light Snow,240,2013-01-16 08:20:00
2:40 AM,26.6,26.6,100,29.74,10.0,WSW,12.7,21.9,N/A,Snow,Light Snow,240,2013-01-16 08:40:00
3:00 AM,28.4,28.4,100,29.74,10.0,WSW,15.0,19.6,N/A,Snow,Light Snow,240,2013-01-16 09:00:00
3:20 AM,28.4,28.4,100,29.74,5.0,WSW,15.0,-,0.01,Snow,Light Snow,240,2013-01-16 09:20:00
3:40 AM,28.4,28.4,100,29.73,10.0,WSW,11.5,-,0.01,,Overcast,250,2013-01-16 09:40:00
4:00 AM,28.4,28.4,100,29.74,10.0,WSW,11.5,-,0.01,,Overcast,250,2013-01-16 10:00:00
4:20 AM,30.2,30.2,100,29.74,10.0,West,9.2,-,N/A,Snow,Light Snow,260,2013-01-16 10:20:00
4:40 AM,32.0,32.0,100,29.73,10.0,West,9.2,-,N/A,,Overcast,260,2013-01-16 10:40:00
5:00 AM,32.0,32.0,100,29.73,10.0,West,9.2,-,N/A,,Scattered Clouds,280,2013-01-16 11:00:00
5:20 AM,32.0,32.0,100,29.73,10.0,West,10.4,-,N/A,,Clear,280,2013-01-16 11:20:00
5:40 AM,30.2,30.2,100,29.74,10.0,West,10.4,-,N/A,,Clear,270,2013-01-16 11:40:00
6:00 AM,30.2,30.2,100,29.75,10.0,WNW,11.5,-,N/A,,Clear,290,2013-01-16 12:00:00
6:20 AM,32.0,32.0,100,29.76,10.0,WNW,11.5,-,N/A,,Partly Cloudy,290,2013-01-16 12:20:00
6:40 AM,32.0,32.0,100,29.76,10.0,West,10.4,-,N/A,,Mostly Cloudy,280,2013-01-16 12:40:00
7:00 AM,32.0,32.0,100,29.76,10.0,West,11.5,-,N/A,,Overcast,280,2013-01-16 13:00:00
7:20 AM,32.0,32.0,100,29.77,10.0,West,11.5,-,N/A,,Overcast,270,2013-01-16 13:20:00
7:40 AM,32.0,32.0,100,29.78,10.0,West,11.5,-,N/A,,Mostly Cloudy,270,2013-01-16 13:40:00
8:00 AM,30.2,30.2,100,29.78,10.0,West,11.5,-,N/A,,Partly Cloudy,270,2013-01-16 14:00:00
8:20 AM,30.2,30.2,100,29.79,10.0,West,11.5,-,N/A,,Clear,270,2013-01-16 14:20:00
8:40 AM,32.0,32.0,100,29.80,10.0,West,13.8,-,N/A,,Partly Cloudy,280,2013-01-16 14:40:00
9:00 AM,32.0,32.0,100,29.80,10.0,West,13.8,19.6,N/A,,Scattered Clouds,270,2013-01-16 15:00:00
9:20 AM,32.0,32.0,100,29.81,10.0,West,13.8,21.9,N/A,,Mostly Cloudy,270,2013-01-16 15:20:00
9:40 AM,32.0,32.0,100,29.82,10.0,West,16.1,21.9,N/A,,Overcast,270,2013-01-16 15:40:00
10:00 AM,33.8,33.8,100,29.82,10.0,West,13.8,20.7,N/A,,Overcast,270,2013-01-16 16:00:00
10:20 AM,33.8,33.8,100,29.83,10.0,West,12.7,-,N/A,,Overcast,270,2013-01-16 16:20:00
10:40 AM,35.6,35.6,100,29.82,10.0,West,11.5,-,N/A,,Mostly Cloudy,270,2013-01-16 16:40:00
11:00 AM,35.6,35.6,100,29.82,10.0,West,11.5,17.3,N/A,,Partly Cloudy,260,2013-01-16 17:00:00
11:20 AM,35.6,35.6,100,29.81,10.0,West,15.0,18.4,N/A,,Clear,270,2013-01-16 17:20:00
11:40 AM,37.4,37.4,100,29.81,10.0,West,15.0,20.7,N/A,,Clear,280,2013-01-16 17:40:00
12:00 PM,37.4,37.4,100,29.82,10.0,WNW,18.4,26.5,N/A,,Clear,290,2013-01-16 18:00:00
12:20 PM,37.4,37.4,100,29.81,10.0,WNW,24.2,28.8,N/A,,Clear,290,2013-01-16 18:20:00
12:40 PM,37.4,37.4,100,29.83,10.0,WNW,20.7,31.1,N/A,,Clear,300,2013-01-16 18:40:00
1:00 PM,37.4,37.4,100,29.83,10.0,WNW,23.0,26.5,N/A,,Clear,300,2013-01-16 19:00:00
1:20 PM,37.4,37.4,100,29.84,10.0,NW,21.9,27.6,N/A,,Clear,310,2013-01-16 19:20:00
1:40 PM,37.4,37.4,100,29.86,10.0,NW,21.9,31.1,N/A,,Clear,310,2013-01-16 19:40:00
2:00 PM,37.4,37.4,100,29.86,10.0,NW,23.0,32.2,N/A,,Clear,320,2013-01-16 20:00:00
2:20 PM,37.4,37.4,100,29.87,10.0,NNW,25.3,32.2,N/A,,Partly Cloudy,330,2013-01-16 20:20:00
2:40 PM,35.6,35.6,100,29.89,10.0,NNW,25.3,31.1,N/A,,Overcast,330,2013-01-16 20:40:00
3:00 PM,35.6,35.6,100,29.92,10.0,NNW,21.9,27.6,N/A,,Overcast,330,2013-01-16 21:00:00
3:20 PM,35.6,35.6,100,29.94,10.0,NNW,19.6,24.2,N/A,,Overcast,340,2013-01-16 21:20:00
3:40 PM,28.4,28.4,100,29.97,10.0,NNE,23.0,-,N/A,,Overcast,30,2013-01-16 21:40:00
4:00 PM,26.6,26.6,100,30.00,10.0,NNE,18.4,24.2,N/A,,Overcast,30,2013-01-16 22:00:00
4:20 PM,24.8,24.8,100,30.01,10.0,NNE,13.8,-,N/A,,Overcast,30,2013-01-16 22:20:00
4:40 PM,24.8,24.8,100,30.02,10.0,NNE,17.3,20.7,N/A,,Overcast,20,2013-01-16 22:40:00
5:00 PM,23.0,23.0,100,30.03,10.0,NNE,17.3,-,N/A,,Overcast,30,2013-01-16 23:00:00
5:40 PM,19.4,19.4,100,30.07,10.0,NNE,16.1,-,N/A,,Partly Cloudy,20,2013-01-16 23:40:00
6:00 PM,19.4,19.4,100,30.10,10.0,NNE,10.4,-,N/A,,Clear,30,2013-01-17 00:00:00
6:20 PM,17.6,17.6,100,30.12,10.0,NNE,9.2,-,N/A,,Clear,20,2013-01-17 00:20:00
6:40 PM,17.6,17.6,100,30.13,10.0,NE,10.4,-,N/A,,Clear,40,2013-01-17 00:40:00
7:00 PM,17.6,17.6,100,30.14,10.0,NNE,10.4,-,N/A,,Clear,30,2013-01-17 01:00:00
7:20 PM,15.8,15.8,100,30.15,10.0,NNE,10.4,-,N/A,,Clear,30,2013-01-17 01:20:00
7:40 PM,15.8,15.8,100,30.17,10.0,NNE,8.1,-,N/A,,Clear,30,2013-01-17 01:40:00
8:00 PM,14.0,14.0,100,30.19,10.0,North,12.7,-,N/A,,Clear,10,2013-01-17 02:00:00
8:20 PM,14.0,10.4,86,30.19,10.0,North,13.8,-,N/A,,Clear,10,2013-01-17 02:20:00
8:40 PM,12.2,10.4,92,30.20,10.0,North,10.4,-,N/A,,Clear,10,2013-01-17 02:40:00
9:00 PM,12.2,8.6,85,30.20,10.0,NNE,8.1,-,N/A,,Clear,20,2013-01-17 03:00:00
9:20 PM,12.2,8.6,85,30.20,10.0,NNE,6.9,-,N/A,,Clear,20,2013-01-17 03:20:00
9:40 PM,10.4,10.4,100,30.20,10.0,North,8.1,-,N/A,,Clear,10,2013-01-17 03:40:00
10:00 PM,10.4,8.6,92,30.20,10.0,NNE,5.8,-,N/A,,Clear,30,2013-01-17 04:00:00
10:20 PM,10.4,8.6,92,30.20,10.0,NE,3.5,-,N/A,,Clear,40,2013-01-17 04:20:00
10:40 PM,10.4,8.6,92,30.20,10.0,East,4.6,-,N/A,,Scattered Clouds,80,2013-01-17 04:40:00
11:00 PM,10.4,8.6,92,30.22,10.0,NNE,3.5,-,N/A,,Overcast,30,2013-01-17 05:00:00
11:20 PM,12.2,10.4,92,30.22,10.0,NNE,4.6,-,N/A,,Overcast,30,2013-01-17 05:20:00
11:40 PM,12.2,8.6,85,30.23,10.0,Calm,Calm,-,N/A,,Overcast,0,2013-01-17 05:40:00